Regional Weather Roundup
Issued by NWS

Home | Current Version | Previous Version | Graphics & Text | Print | Product List | Glossary On
Versions: 1 2 3 4 5 6 7 8 9 10 11 12 13 14 15 16 17 18 19 20 21 22 23 24 25 26 27 28 29 30 31 32 33 34 35 36 37 38 39 40 41 42 43 44 45 46 47 48 49 50
000
ASUS43 KOAX 172302
RWRNE

WEATHER ROUNDUP FOR NEBRASKA
NATIONAL WEATHER SERVICE OMAHA NE
500 PM CST SAT FEB 17 2018

NOTES: SATELLITE DATA IS BEING USED TO AUGMENT CLOUD COVER ABOVE
       12000 FEET.
       "FAIR" INDICATES FEW OR NO CLOUDS BELOW 12,000 FEET WITH NO
       SIGNIFICANT WEATHER AND/OR OBSTRUCTIONS TO VISIBILITY.


NEZ001>004-019>022-054>056-180000-
NEBRASKA PANHANDLE

CITY           SKY/WX    TMP DP  RH WIND       PRES   REMARKS
SCOTTSBLUFF    MOSUNNY   52  12  20 W20G28    29.86F
ALLIANCE       SUNNY     49  16  26 W18G24    29.87F
CHADRON        SUNNY     37  25  61 NE9       29.84F WCI  30
GORDON         FAIR      38  21  50 SE6       29.89F WCI  34
KIMBALL        SUNNY     52  10  18 SW21G37   29.90F
SIDNEY         SUNNY     52  12  20 W9        29.92F
$$

NEZ057>060-069>072-079>082-180000-
SOUTHWEST NEBRASKA

CITY           SKY/WX    TMP DP  RH WIND       PRES   REMARKS
NORTH PLATTE   SUNNY     48  19  31 E5        30.00F
IMPERIAL       FAIR      47  22  37 SE8       30.00F
LEXINGTON      FAIR      45  25  45 NE3       30.06S
MCCOOK         SUNNY     49  23  36 NW3       30.04F
OGALLALA       SUNNY     51  16  24 S6        29.95F
$$

NEZ005>010-023>029-035>040-094-180000-
NORTH CENTRAL NEBRASKA

CITY           SKY/WX    TMP DP  RH WIND       PRES   REMARKS
VALENTINE      SUNNY     40  22  48 SW5       29.98F
AINSWORTH      SUNNY     38  24  57 CALM      30.01F
BROKEN BOW     SUNNY     44  21  40 N3        30.04F
O`NEILL        SUNNY     37  25  62 NW6       30.07S WCI  32
ORD            SUNNY     44  24  45 N7        30.05S
THEDFORD       SUNNY     44  19  36 CALM      30.00F
$$

NEZ041-046>049-061>064-073>077-083>087-180000-
SOUTH CENTRAL NEBRASKA

CITY           SKY/WX    TMP DP  RH WIND       PRES   REMARKS
GRAND ISLAND   SUNNY     44  28  53 NE7       30.09R
AURORA         SUNNY     44  23  42 N9        30.09R
HASTINGS       SUNNY     46  23  40 NW9       30.09R
HEBRON         SUNNY     52  20  28 NW7       30.10R
HOLDREGE       SUNNY     47  24  39 CALM      30.07S
KEARNEY        SUNNY     45  24  43 N7        30.08S
YORK           SUNNY     45  25  45 N9        30.10R
$$

NEZ011>018-030>034-042>045-180000-
NORTHEAST NEBRASKA

CITY           SKY/WX    TMP DP  RH WIND       PRES   REMARKS
NORFOLK        SUNNY     39  27  62 VRB7      30.07R WCI  34
ALBION         SUNNY     41  26  55 NW9       30.08R
BLAIR          CLEAR     42  29  60 NW8       30.10R
COLUMBUS       SUNNY     39  29  67 N6        30.10R WCI  35
FREMONT        PTSUNNY   43  29  57 NW6       30.11S
TEKAMAH        CLEAR     38  28  67 NW13      30.12R WCI  30
WAYNE          SUNNY     36  29  76 NW7       30.09R WCI  30
$$

NEZ050>053-065>068-078-088>093-180000-
SOUTHEAST NEBRASKA

CITY           SKY/WX    TMP DP  RH WIND       PRES   REMARKS
LINCOLN        SUNNY     47  24  40 NW9       30.12R
OMAHA EPPLEY   PTCLDY    44  28  53 N10       30.10R
BEATRICE       SUNNY     50  25  36 N12       30.11R
FALLS CITY     SUNNY     51  18  27 NW10      30.10R
NEBRASKA CITY  SUNNY     46  25  43 NW10      30.11R
PLATTSMOUTH    CLEAR     44  26  47 NW12      30.10R
$$

NEZ044-045-051>053-067-180000-
OMAHA AREA

CITY           SKY/WX    TMP DP  RH WIND       PRES   REMARKS
OMAHA EPPLEY   PTCLDY    44  28  53 N10       30.10R
BLAIR          CLEAR     42  29  60 NW8       30.10R
FREMONT        PTSUNNY   43  29  57 NW6       30.11S
MILLARD        CLEAR     46  26  46 NW10      30.11R
OFFUTT AFB     CLEAR     45  24  43 NW14      30.10R
PLATTSMOUTH    CLEAR     44  26  47 NW12      30.10R
WAHOO          FAIR      43  27  52 NW9       30.10S
$$




USA.gov is the U.S. government's official web portal to all federal, state and local government web resources and services.